Theta_e
326 321 318 320 316 316 311 303 295 290 292 288 286 289 289 294 293 294 291 291 294 294 294 298 296 297 297 295 297 295 295 296 294 291 289 294 314 318 326 320 324 329 330 330 332 335 340 344 347 348 347 347 348 348 348 349 348 349 348 348 348 348 348 348 347 347 347 347 346 346 346 347 346 346 346 345 345 345 344 344 344 345 346 346 346 346 347 345 344 343 342 341 339 337 337 337 337
323 317 317 316 316 311 305 296 288 285 283 281 287 286 289 291 292 292 293 291 293 298 293 296 298 299 298 299 295 298 298 298 297 299 301 305 312 322 325 320 325 329 329 329 331 333 334 338 345 347 347 347 348 348 348 348 348 348 347 348 347 347 347 347 347 347 347 346 346 346 346 346 345 345 344 344 343 342 343 343 343 345 345 345 345 345 344 343 342 340 339 338 336 335 334 335 335
319 318 316 316 314 307 302 298 295 280 285 282 283 288 290 291 291 292 294 293 291 292 292 296 297 296 301 299 298 299 295 301 301 302 304 308 316 321 324 322 326 328 328 327 329 330 331 336 342 345 346 347 347 347 347 347 348 347 347 347 347 347 347 347 347 347 347 346 345 345 344 344 344 343 342 341 341 341 340 340 340 342 342 342 342 342 341 341 340 338 337 336 334 333 333 332 332
315 317 313 310 310 299 297 291 286 285 286 281 283 288 288 293 291 294 293 294 291 292 295 300 299 298 300 296 297 298 296 298 302 304 303 310 316 320 324 323 325 327 326 326 326 328 329 336 341 345 345 346 347 346 345 346 347 347 347 346 346 346 347 347 346 346 345 345 344 343 342 342 342 341 340 340 339 339 338 338 338 339 340 339 340 340 340 339 338 336 335 334 332 331 331 330 330
315 316 311 306 303 300 294 290 287 284 286 283 283 287 290 290 293 292 291 292 292 294 294 296 296 297 299 298 296 298 297 297 301 304 304 308 310 320 323 324 324 326 326 325 325 326 328 337 340 341 344 343 344 346 345 345 344 344 345 345 344 344 344 344 345 344 343 342 341 340 342 341 340 339 338 337 336 336 336 336 337 337 338 338 338 338 337 336 334 334 332 331 330 330 328 328 328
311 311 310 313 305 302 295 290 289 286 290 287 287 290 290 292 293 293 294 292 293 294 294 293 296 296 296 295 296 297 296 302 303 304 305 309 311 320 323 324 324 325 324 323 323 324 326 336 339 340 342 343 343 343 343 343 343 343 343 343 343 342 343 343 343 342 341 340 340 338 338 337 338 337 335 334 334 334 334 335 335 336 335 335 336 335 334 333 332 331 330 329 329 328 327 327 327
313 304 302 303 301 298 291 286 285 286 293 291 291 293 296 295 294 294 293 295 296 294 293 297 294 295 294 294 298 299 300 305 305 307 309 308 313 321 323 323 323 323 322 321 322 323 324 335 339 340 341 342 342 342 341 342 341 340 341 341 340 341 342 341 342 340 340 337 336 336 338 336 335 334 332 332 332 332 332 333 333 333 333 333 332 332 332 331 329 329 328 328 328 327 326 325 325
311 308 303 296 291 293 291 287 288 287 290 294 293 294 297 296 293 295 294 294 294 297 294 292 294 295 293 296 295 295 299 302 306 304 304 310 316 321 323 323 322 321 321 320 320 321 327 334 338 339 339 339 339 340 340 340 340 340 339 339 338 339 340 340 339 336 337 336 335 335 335 334 333 332 331 330 330 330 330 330 330 331 330 330 330 329 328 328 328 328 328 328 327 326 325 324 323
305 304 299 295 294 287 285 288 288 289 291 291 294 294 303 299 295 296 293 292 293 293 293 294 293 294 290 291 295 295 295 299 303 306 307 311 317 320 323 322 322 320 320 320 320 320 321 332 336 338 339 338 337 338 339 339 338 339 338 339 338 338 338 337 336 336 335 335 335 334 333 333 332 331 331 330 329 328 327 327 327 327 328 328 327 327 327 328 328 329 329 328 326 325 324 323 322
302 302 295 291 288 290 282 285 287 289 290 292 292 296 296 294 294 293 294 293 294 293 293 292 292 294 292 292 292 294 298 300 302 306 306 312 317 320 321 321 321 319 318 319 319 320 321 328 333 335 337 338 337 336 337 337 337 337 338 338 337 336 336 336 335 334 335 334 334 334 333 331 331 331 330 328 327 326 326 326 326 326 326 326 327 327 327 328 328 328 327 326 325 323 322 321 320
298 296 295 293 288 285 285 285 284 288 287 290 294 297 297 295 296 293 292 293 292 294 293 293 296 294 293 293 295 296 297 301 304 305 307 312 316 319 320 318 318 319 318 317 318 319 321 323 328 332 335 335 337 337 337 337 337 337 337 337 337 336 336 336 334 334 334 333 333 332 331 331 331 329 328 327 326 326 326 326 325 325 326 326 327 327 327 327 327 326 326 325 323 322 321 320 319
296 295 292 285 285 285 283 283 286 289 292 291 292 291 291 294 293 294 292 294 292 292 293 295 297 293 293 291 292 294 296 299 304 304 308 310 315 316 317 315 315 317 317 317 316 317 318 319 323 327 331 331 334 335 336 337 337 336 336 336 335 335 335 334 334 332 332 332 332 331 331 330 328 327 326 326 326 326 326 325 325 325 325 326 327 326 325 325 325 324 323 322 322 321 320 319 319
296 291 288 287 285 286 283 286 288 290 289 289 292 294 292 293 295 294 292 292 292 293 294 295 295 297 294 292 292 293 298 300 303 304 308 311 312 310 312 312 312 314 315 315 316 316 315 318 321 321 325 328 328 329 332 333 335 336 336 335 335 334 334 333 332 332 331 332 331 331 330 328 327 326 326 325 325 326 326 325 325 325 326 326 326 325 324 324 323 322 322 322 321 320 320 319 318
295 292 292 288 284 284 287 287 285 288 286 289 289 290 292 295 293 294 290 294 291 294 295 295 297 295 293 293 294 291 295 297 303 305 308 308 308 309 311 310 310 310 311 313 316 316 316 316 318 318 322 324 322 326 327 330 332 334 334 334 334 334 334 332 331 331 330 330 330 329 328 327 326 325 324 324 324 325 325 325 326 326 326 326 325 324 323 322 321 321 320 320 320 319 318 317 316
300 292 288 287 286 284 284 289 286 284 287 289 292 292 293 295 293 290 294 294 295 294 297 295 297 296 292 294 293 293 297 297 303 305 304 305 307 308 308 308 308 309 309 311 314 315 316 315 316 317 317 318 319 320 321 325 327 330 332 332 333 333 333 332 331 330 330 329 329 328 326 325 324 324 324 323 324 323 323 324 325 325 325 325 323 322 321 320 319 319 318 318 318 317 316 315 314
297 292 290 292 285 285 285 286 285 287 289 289 291 290 292 292 292 295 294 296 294 295 295 297 298 297 295 295 296 298 295 300 302 303 304 304 304 304 306 307 307 308 308 310 312 313 315 315 314 315 316 317 316 316 318 318 325 325 328 330 330 331 331 330 330 328 326 326 325 323 320 316 317 316 319 318 322 322 323 319 323 323 323 323 322 321 320 319 318 317 316 315 314 314 314 313 312
295 293 291 282 286 284 285 286 285 286 287 287 289 292 294 293 292 292 292 294 295 292 295 293 298 298 294 294 294 293 297 303 303 302 303 303 304 303 304 305 305 306 308 309 311 312 313 314 314 314 314 314 314 314 315 315 319 323 324 325 326 328 328 328 328 324 319 318 316 313 310 306 306 307 307 306 313 308 317 318 322 322 322 321 320 320 319 318 317 316 314 313 311 309 308 308 309
300 292 285 284 284 284 286 288 288 290 292 291 291 290 292 292 290 295 294 294 292 292 292 293 293 293 294 291 295 296 299 302 302 304 303 302 302 302 304 306 306 310 309 309 309 311 312 312 313 313 312 312 312 313 313 313 315 320 316 318 318 322 322 322 320 314 313 308 311 306 302 304 302 301 303 310 304 308 312 316 320 321 321 319 318 318 317 317 316 315 313 312 310 307 303 292 294
295 287 285 288 284 290 291 289 289 290 292 290 290 290 291 294 295 293 294 291 291 293 292 291 294 296 295 292 296 298 300 300 302 304 303 303 302 304 306 306 307 307 308 309 310 310 311 311 311 312 312 311 310 310 311 312 313 313 312 314 314 317 316 313 310 309 305 304 301 299 300 299 298 299 300 303 304 310 310 315 318 319 318 317 316 316 316 315 314 312 311 309 306 302 292 291 290
294 291 288 286 288 289 290 290 292 291 293 294 293 292 290 291 293 293 294 293 290 291 293 291 292 297 297 294 294 297 299 300 301 303 303 304 303 306 306 306 306 308 310 311 311 310 309 310 311 312 311 309 310 310 309 310 310 310 310 311 312 311 309 307 305 303 302 300 299 297 295 296 297 298 307 308 309 303 308 313 315 316 316 316 315 313 314 312 311 310 307 304 299 294 290 290 290
294 293 289 290 289 290 294 292 293 293 292 292 292 289 289 291 290 292 290 293 296 297 295 296 296 296 297 295 294 295 298 298 299 302 302 303 303 305 307 308 308 309 311 310 307 309 309 310 310 310 310 308 309 309 309 309 309 308 308 308 308 307 305 304 302 300 299 297 296 295 294 296 296 298 298 299 296 296 295 295 295 296 295 297 300 292 293 294 292 290 291 293 290 291 290 290 290
294 296 295 293 289 291 295 292 291 291 290 291 288 290 296 292 290 290 292 292 295 297 292 295 297 298 295 294 294 295 297 298 299 300 301 302 302 302 304 305 305 302 305 308 309 310 309 309 309 309 308 307 308 308 309 308 307 307 306 306 305 304 303 301 299 297 296 295 294 294 295 295 296 297 294 293 292 292 290 289 289 289 290 291 292 289 289 289 289 289 290 290 289 289 289 290 291
293 293 294 296 293 295 293 292 290 291 291 290 291 294 291 293 293 289 291 294 300 302 296 293 296 297 297 294 293 294 296 297 298 299 301 301 301 302 303 304 304 304 304 308 309 309 309 308 308 308 308 307 306 306 306 307 306 306 306 304 304 302 300 300 298 295 295 294 294 294 294 294 295 293 292 291 290 289 289 288 287 288 288 288 289 289 288 289 289 288 288 288 288 288 288 288 288
295 294 290 294 295 295 297 297 291 289 291 294 293 290 293 293 294 290 291 296 299 301 297 297 294 293 293 293 294 296 297 297 298 300 301 302 302 303 303 303 304 304 302 305 307 308 308 308 308 308 308 307 306 305 305 305 304 304 304 304 303 302 299 299 298 295 294 294 294 294 294 294 294 292 291 290 289 288 288 287 287 287 287 288 289 289 288 288 288 287 288 287 288 288 288 287 287
294 294 292 294 294 294 295 293 291 291 292 293 291 292 296 294 293 291 294 298 299 300 298 297 295 293 291 293 294 295 295 296 297 299 300 301 302 302 301 301 299 299 301 303 304 306 307 308 307 307 307 306 306 305 305 305 303 302 301 301 301 302 299 298 297 295 294 293 293 294 294 292 291 291 290 289 288 288 287 287 286 287 287 287 288 288 288 288 287 287 287 287 286 287 287 287 287
293 297 294 291 291 292 293 291 290 290 292 291 292 293 295 294 291 291 296 299 300 299 296 296 292 291 292 293 294 294 295 296 297 297 298 300 300 298 300 300 298 298 301 302 302 304 305 306 306 307 307 306 306 304 305 303 302 302 301 301 300 300 298 296 295 295 294 293 293 293 293 293 291 291 290 288 288 287 287 287 287 286 286 287 287 287 287 287 287 286 286 287 287 286 287 289 287
290 291 291 293 294 292 291 291 290 289 288 287 292 293 294 291 292 293 296 297 295 293 293 291 290 291 292 292 293 293 294 296 296 298 297 297 298 298 300 299 298 300 299 299 301 302 303 304 305 306 306 306 305 303 304 303 302 302 301 300 298 298 297 295 295 294 293 293 293 293 293 293 291 290 289 288 287 287 287 287 286 286 286 287 287 287 287 287 286 286 287 286 286 286 286 287 286
291 290 290 291 289 290 289 288 291 289 293 289 293 293 293 288 289 293 298 297 293 293 294 294 291 292 293 292 292 292 293 296 296 295 297 296 297 298 299 299 299 299 298 299 300 300 300 302 304 305 305 305 304 303 303 302 301 301 300 299 298 297 295 294 294 294 294 293 293 293 292 292 291 289 289 288 288 286 286 285 285 286 286 286 286 286 287 286 286 286 286 286 286 286 286 286 286
291 290 291 290 289 291 293 291 291 289 290 288 290 289 289 288 288 296 297 296 293 291 293 294 294 295 294 293 292 292 293 294 293 295 297 299 299 300 299 300 301 300 300 300 299 298 299 300 302 303 304 304 303 302 302 302 301 300 299 298 297 296 295 294 293 294 293 293 293 292 291 291 291 290 289 289 290 286 285 285 285 286 286 286 286 286 286 286 287 287 287 286 285 285 285 285 286
290 288 286 290 289 289 291 288 286 288 289 287 289 285 283 289 293 296 297 293 291 290 292 294 295 295 295 294 292 292 292 292 292 295 297 298 299 299 299 300 300 300 300 299 297 298 299 299 300 301 302 303 302 302 302 301 300 299 299 297 296 295 294 293 294 293 293 292 293 292 291 291 291 290 289 288 288 286 286 285 285 285 285 285 286 286 286 286 286 286 286 287 289 285 284 284 284
290 287 287 285 284 287 289 289 286 288 288 288 289 286 286 291 293 295 296 292 290 292 293 293 294 294 294 295 294 294 294 293 295 295 296 297 298 299 299 300 299 300 300 298 298 299 298 298 299 299 301 301 302 301 301 300 299 298 297 295 295 294 294 293 293 293 292 292 292 292 291 291 290 289 289 289 288 287 286 284 284 284 285 285 285 285 285 284 285 286 285 284 284 284 284 286 284
282 285 282 279 283 285 291 289 289 289 287 287 289 284 288 291 294 295 293 290 290 290 291 292 293 293 293 294 294 294 296 295 294 295 295 296 297 298 299 299 299 299 299 299 299 298 297 298 298 298 298 300 300 301 300 300 298 297 296 296 293 293 294 293 292 293 293 291 292 292 291 291 290 289 289 289 288 287 286 285 284 284 285 285 285 284 285 285 285 285 285 284 283 283 284 283 283
279 284 282 285 281 284 285 291 287 289 287 288 290 288 285 286 292 293 289 289 289 288 289 291 292 293 293 294 294 294 295 297 296 295 295 296 296 297 298 298 299 299 299 299 298 297 297 297 298 297 297 298 299 300 299 298 297 295 294 293 293 293 293 293 292 292 292 291 291 292 291 291 290 289 289 288 288 287 286 285 284 284 285 284 284 284 284 285 285 285 284 286 283 283 283 283 283
283 281 283 282 284 283 283 286 292 285 288 285 287 285 288 292 293 294 293 291 289 288 291 292 293 294 295 294 293 293 295 296 298 300 298 295 296 296 297 299 298 298 298 299 299 298 298 297 297 297 297 297 298 298 298 297 295 294 293 292 292 292 292 292 292 291 291 291 291 291 291 291 290 289 289 288 288 287 286 285 284 284 285 284 284 284 283 284 284 284 283 282 282 283 282 283 283
283 281 280 282 280 282 285 283 285 286 286 285 283 285 287 290 292 292 294 293 291 293 294 294 294 294 295 295 295 295 295 296 298 300 300 297 295 295 296 296 297 297 298 298 298 298 298 297 296 297 297 296 297 297 297 296 293 292 290 290 290 290 291 291 291 290 291 291 291 291 291 291 290 289 288 288 287 287 286 285 284 284 284 283 284 283 283 284 284 282 283 282 283 282 282 282 282
286 286 285 281 281 283 282 287 290 287 289 286 284 286 289 289 290 292 294 294 291 293 295 294 294 294 294 294 295 295 296 297 299 300 300 297 296 295 295 295 296 296 297 297 298 298 297 296 296 296 296 296 296 296 295 294 292 291 290 289 289 290 290 290 290 291 290 291 291 291 290 291 290 289 288 288 287 287 286 285 284 284 284 283 283 283 283 284 283 282 282 283 283 283 283 282 281
285 284 283 284 284 285 286 288 289 287 285 286 288 289 289 289 290 291 292 293 292 292 293 294 295 295 294 295 296 296 296 297 300 300 299 297 295 294 294 294 294 295 296 295 296 296 296 296 295 294 295 295 295 294 294 293 292 291 290 290 291 291 290 290 290 291 290 291 291 290 290 290 290 289 288 287 287 288 286 285 284 283 283 283 283 284 284 283 283 283 284 283 282 281 282 281 281
285 284 281 285 282 284 289 288 290 285 285 283 284 288 289 290 291 292 293 292 292 293 293 293 295 295 295 295 296 296 298 299 299 298 299 295 293 292 292 292 293 293 294 294 295 296 296 296 295 295 295 294 295 295 295 294 294 293 292 291 292 292 291 290 290 290 291 291 290 290 290 290 289 289 288 288 287 287 285 285 284 284 283 283 283 283 282 285 284 283 283 281 281 280 280 281 281
284 284 284 282 284 286 289 289 291 288 284 285 285 286 288 289 290 291 292 292 294 295 294 294 295 295 296 296 296 297 297 297 298 298 298 294 293 292 292 292 292 294 295 294 295 295 295 295 295 294 294 294 295 295 295 294 294 294 293 292 292 291 291 291 290 291 291 290 289 289 289 289 289 288 288 288 287 287 286 285 285 284 283 284 283 282 283 283 283 283 283 283 281 281 281 282 280
282 282 280 283 286 283 284 284 282 282 286 284 284 286 288 289 291 292 293 294 294 295 294 294 295 295 295 296 296 295 296 297 297 297 298 295 292 291 289 289 291 292 292 291 292 294 295 295 294 294 294 294 294 294 295 294 294 292 291 289 290 290 289 290 289 288 289 288 288 288 289 289 289 289 288 288 288 287 286 286 285 284 283 284 283 283 283 283 282 283 282 282 282 281 279 281 282
285 285 284 284 285 286 285 284 283 284 285 282 284 286 288 288 288 288 291 293 292 293 293 293 294 295 296 296 295 296 296 297 297 297 297 297 292 290 290 290 289 290 292 292 293 294 295 295 295 294 294 294 294 294 294 293 292 289 288 288 288 287 287 287 286 286 288 289 289 287 288 289 289 289 288 288 288 287 286 286 285 284 284 283 283 283 283 284 283 283 283 282 282 282 279 279 281
286 283 286 287 288 286 285 285 284 279 281 279 281 281 285 283 286 286 289 286 287 288 289 291 293 294 294 293 294 295 296 295 295 296 296 296 292 291 289 287 288 290 291 293 293 294 294 294 294 293 293 293 294 293 294 293 292 291 289 288 287 288 286 286 287 288 287 288 289 289 288 289 289 288 288 288 288 287 286 286 285 284 284 283 283 283 283 282 282 282 282 282 281 280 281 280 279
283 283 286 288 287 285 284 283 282 277 276 282 281 279 281 282 283 286 285 284 288 288 289 292 293 293 291 292 293 295 295 295 293 293 294 293 291 290 288 288 289 290 292 292 292 292 292 293 293 293 293 293 293 293 293 293 292 291 291 291 291 290 289 289 290 290 289 290 290 289 289 288 289 289 288 287 287 287 286 286 285 285 284 283 284 283 282 283 283 283 282 281 281 282 281 279 280
282 282 282 284 283 283 283 282 283 281 279 282 282 282 278 281 284 288 288 287 289 290 291 291 292 291 291 292 294 294 295 294 294 294 292 291 290 290 292 292 290 291 291 290 290 290 291 291 291 292 292 293 293 293 293 293 292 291 290 291 291 290 291 290 290 290 290 290 289 289 288 287 288 288 288 287 287 287 286 285 285 284 284 283 283 283 283 282 282 282 282 282 280 282 281 282 280
282 283 283 283 283 283 282 282 280 278 278 280 280 281 279 278 284 283 285 283 286 288 290 291 290 291 292 293 294 294 294 293 291 292 291 292 291 291 290 290 290 288 288 289 289 289 290 289 290 291 291 291 292 292 292 292 292 292 291 291 290 291 291 290 289 290 289 288 288 287 287 287 287 287 287 287 286 286 286 285 284 284 283 283 284 283 282 282 282 282 281 281 280 281 280 280 281
284 283 282 281 280 280 281 279 280 277 275 279 278 281 277 281 288 282 281 283 284 286 289 289 290 291 292 293 293 293 293 292 291 290 290 291 291 289 287 286 286 286 286 287 288 288 288 287 289 289 290 290 291 291 292 291 292 291 290 290 290 290 290 286 287 287 287 286 287 287 287 286 286 286 286 286 285 286 285 285 284 284 283 283 284 282 282 281 281 281 282 282 281 281 280 281 281
283 283 285 281 279 277 277 276 276 276 274 280 280 282 282 278 283 282 282 284 283 285 287 288 287 287 290 291 291 292 292 291 290 289 288 289 288 286 284 286 285 284 285 286 287 287 287 287 288 288 289 290 290 291 291 291 291 291 291 291 290 290 289 286 286 285 285 285 287 286 286 286 286 286 285 285 285 285 285 284 284 284 283 283 283 282 282 282 281 282 282 281 281 281 280 280 281
286 283 280 282 283 276 276 268 274 274 273 279 281 282 282 277 280 281 279 280 281 285 286 288 287 288 289 289 291 290 289 289 288 289 290 289 289 287 284 287 284 284 284 285 285 286 286 287 287 288 287 288 289 290 290 291 291 291 291 291 290 291 290 287 287 286 286 286 286 286 286 285 285 285 285 285 284 285 285 284 284 283 283 283 283 282 282 282 281 281 281 281 281 280 280 280 280
284 281 282 279 274 273 269 271 270 271 277 277 279 281 278 280 287 283 287 288 289 284 286 289 289 288 289 292 292 292 291 287 288 288 288 289 291 295 290 285 285 284 284 284 285 285 285 285 286 287 287 287 288 289 289 290 290 290 290 290 290 290 290 289 288 287 286 286 286 286 285 285 285 284 285 285 285 284 284 283 283 283 282 283 283 282 282 281 281 281 281 281 281 280 280 280 280
283 282 279 277 272 269 269 266 264 268 275 276 278 280 279 285 285 286 291 293 290 288 286 286 287 289 290 290 290 291 291 287 287 287 288 288 289 289 290 289 286 285 284 284 283 285 285 285 285 286 287 287 287 288 288 289 289 290 289 290 290 290 289 289 288 288 287 287 287 286 286 286 285 285 285 285 286 284 284 284 284 283 283 283 283 282 282 281 281 281 280 280 280 281 280 280 279
284 283 285 283 278 271 270 269 277 277 277 276 276 276 274 275 280 283 287 288 285 285 285 285 285 285 285 286 286 288 289 288 287 287 287 288 288 286 287 287 286 285 283 283 283 283 284 284 285 285 285 285 285 286 287 288 289 288 288 289 289 289 289 289 288 288 287 286 286 286 286 286 286 286 286 286 285 284 284 284 283 283 282 282 282 282 282 281 281 280 280 280 280 279 280 280 279
283 282 282 278 282 283 281 282 279 281 277 273 272 277 276 283 285 286 284 285 288 288 287 285 288 286 284 286 287 288 288 287 287 286 288 288 286 286 287 287 286 284 283 282 282 283 283 284 284 284 285 284 285 285 286 286 287 287 287 287 288 287 288 287 287 287 287 287 286 286 286 286 287 286 286 286 285 285 284 283 283 283 282 282 282 282 281 281 280 280 279 279 279 280 279 279 279
282 284 281 284 284 287 281 280 281 277 275 278 281 278 283 285 290 291 283 284 283 282 283 282 283 284 282 285 286 285 285 285 285 287 286 285 287 287 287 286 286 285 283 283 283 283 284 284 284 284 284 283 284 285 285 286 286 285 286 286 286 286 286 286 287 286 286 285 285 286 286 286 285 285 285 285 285 284 284 284 283 282 282 282 282 282 281 281 280 280 280 279 279 279 279 279 278
283 278 283 285 284 284 282 277 274 277 277 278 285 281 283 281 280 284 284 283 285 287 283 281 282 280 284 285 284 285 285 284 283 283 283 283 284 286 286 287 286 285 286 284 283 283 284 285 285 285 285 285 285 285 285 285 285 285 286 286 286 286 286 286 286 285 285 284 284 284 284 284 285 285 285 285 284 284 284 284 283 282 282 281 281 281 281 280 280 280 279 279 279 278 278 278 278
283 281 285 283 278 277 279 274 274 275 275 277 279 284 283 285 285 290 289 290 288 284 283 282 284 283 284 285 287 287 284 285 286 287 286 286 286 287 288 288 287 286 285 285 285 283 283 284 284 285 286 286 286 285 285 285 285 287 287 287 286 286 286 286 286 285 284 284 284 284 284 285 284 284 284 284 283 283 283 283 283 282 281 281 281 281 280 280 280 279 279 279 278 278 278 277 277
285 286 283 284 282 280 277 279 277 279 276 279 278 283 280 288 287 288 288 288 283 281 282 285 284 284 284 287 290 292 291 289 287 288 289 286 287 288 289 287 286 286 285 284 283 283 283 283 284 284 285 284 284 284 284 285 286 286 287 287 286 287 287 287 286 285 284 284 285 284 284 283 284 284 283 283 283 283 283 283 282 282 281 281 280 280 280 280 280 279 279 278 278 277 277 277 277
283 282 281 283 283 285 283 282 280 279 278 278 277 276 283 289 290 289 290 286 280 282 286 287 290 288 288 291 292 292 292 292 291 290 289 288 288 289 289 288 287 286 284 283 283 282 282 282 282 283 284 283 283 284 284 285 285 285 285 286 286 286 286 286 284 284 284 284 284 284 284 284 283 283 283 283 283 283 283 283 282 282 281 280 280 280 280 279 279 279 278 278 277 277 277 277 276
284 286 283 286 283 281 280 278 285 281 280 277 278 276 284 289 292 293 292 287 282 284 286 287 285 284 288 291 291 290 290 289 288 287 287 287 287 287 287 287 287 287 287 287 285 283 284 284 283 283 283 283 283 283 283 284 284 285 284 285 285 284 284 283 284 284 284 284 283 283 283 282 283 283 283 283 283 283 283 282 282 281 281 280 280 280 279 279 279 279 278 278 277 277 277 276 276
Wind_Speed
5 5 3 0 3 2 2 6 0 3 2 3 3 1 3 1 2 5 4 3 0 1 2 1 5 4 3 3 8 5 3 7 8 7 3 2 2 4 8 1 1 6 8 6 6 6 6 10 13 13 14 13 13 14 14 14 14 14 13 13 12 12 12 12 12 11 11 11 10 10 10 10 10 10 10 10 9 9 9 9 9 9 10 11 12 13 14 14 15 14 14 14 15 14 14 13 13
3 4 2 1 0 1 1 1 4 3 4 3 6 1 3 2 1 5 5 5 3 0 3 0 0 0 2 2 2 0 3 6 7 1 4 3 6 2 7 3 4 10 7 6 5 5 5 7 11 12 15 14 13 12 13 13 13 14 14 14 14 13 12 12 12 12 11 11 11 11 10 10 9 10 10 9 9 9 9 8 8 10 10 12 13 13 13 13 14 14 13 13 14 13 13 13 12
2 5 1 3 3 4 2 4 3 1 0 3 7 7 2 1 4 6 9 7 4 2 2 1 0 1 1 0 2 3 6 0 2 2 3 3 1 7 9 4 6 7 7 5 5 5 5 6 9 9 16 14 14 14 13 13 13 13 13 14 14 13 12 12 12 12 12 12 11 11 10 9 9 8 8 8 8 9 8 7 6 8 10 9 10 9 8 9 12 12 12 12 13 12 12 12 11
1 4 1 3 1 3 1 3 4 5 2 5 5 5 3 2 6 7 5 7 5 1 0 0 1 1 1 2 3 2 5 3 5 4 1 4 8 3 10 7 6 6 5 5 5 5 5 7 9 9 13 14 15 13 14 14 14 15 13 13 13 13 13 12 12 12 11 11 11 10 9 9 8 7 7 7 7 8 7 6 8 8 8 8 10 10 11 11 11 10 10 11 11 12 12 11 11
1 2 2 3 3 1 1 0 2 3 3 5 3 4 4 6 7 4 4 2 3 2 1 1 0 1 1 2 0 1 3 3 3 6 2 3 1 4 9 7 6 7 7 6 5 5 5 9 8 8 11 14 13 15 14 13 11 12 12 13 12 12 12 11 11 11 11 10 9 9 11 9 8 7 6 6 5 6 7 7 8 10 10 10 10 10 10 10 10 10 10 10 11 11 11 11 11
4 1 3 1 0 2 5 0 0 4 8 5 1 4 4 6 4 2 7 7 4 4 2 0 1 0 1 3 4 2 3 1 0 1 2 4 4 6 8 7 6 7 6 5 4 5 5 8 9 8 13 13 14 13 12 12 13 13 11 11 11 11 10 11 12 12 10 10 9 9 9 9 8 7 7 7 7 7 7 6 8 9 10 10 10 10 10 9 9 10 10 10 11 12 12 12 12
1 3 5 4 2 4 3 2 6 5 9 7 4 6 8 3 4 1 5 3 1 1 2 1 1 0 1 3 2 5 2 1 2 1 5 1 4 8 9 7 6 7 6 5 4 5 5 9 11 12 11 12 14 14 14 14 14 14 15 14 14 13 13 13 12 12 11 12 11 10 11 10 9 8 8 9 8 8 7 7 7 8 9 9 9 9 9 9 10 10 11 11 12 12 12 12 13
1 1 2 2 1 3 0 2 5 5 5 7 3 4 7 4 1 0 4 1 3 1 0 2 0 2 7 2 2 2 2 3 2 1 1 2 5 8 9 8 9 7 6 5 4 4 6 10 12 13 13 15 14 14 15 15 15 15 13 13 14 14 14 12 13 13 12 11 10 10 10 9 8 9 9 9 9 8 7 7 7 8 8 9 9 9 9 9 10 11 11 12 12 13 13 13 13
5 5 0 3 1 2 1 5 5 3 8 3 9 7 10 6 4 2 5 3 3 1 1 1 4 1 3 3 4 3 5 2 3 3 3 4 7 9 9 9 10 9 7 6 5 4 5 8 11 14 11 14 15 15 16 15 15 15 13 13 14 14 14 13 13 12 11 11 11 11 10 11 10 11 10 10 9 8 8 8 8 8 9 9 9 10 10 10 11 12 12 12 13 13 13 13 13
2 2 1 1 3 3 3 7 0 4 4 3 4 10 7 1 1 4 3 4 6 1 1 1 2 5 1 5 5 5 1 3 2 1 2 5 6 8 8 9 7 8 7 6 5 5 5 8 10 11 10 12 14 15 16 16 15 14 14 14 14 14 13 13 13 12 12 12 12 12 12 12 12 12 11 10 10 9 9 9 9 9 9 10 10 10 11 11 11 12 12 13 13 12 12 12 13
0 5 2 1 1 1 4 8 4 7 4 4 9 11 10 5 3 2 4 3 1 3 2 4 1 6 0 5 5 2 3 2 2 4 4 5 5 8 7 5 5 7 8 6 5 5 5 5 10 9 10 10 12 12 13 15 15 14 14 14 15 14 14 14 13 13 13 13 13 13 12 13 12 12 11 11 11 10 10 10 10 10 11 11 11 11 11 12 12 12 12 12 12 12 12 12 12
1 1 2 1 2 3 4 2 6 9 8 4 4 3 1 3 3 1 2 3 1 3 4 6 1 4 1 2 4 2 5 4 6 2 5 4 5 5 5 4 5 5 6 6 4 5 5 5 6 7 10 10 9 10 11 11 12 13 14 15 15 14 14 14 14 14 14 14 14 13 13 13 12 12 12 12 12 12 12 12 12 12 12 12 12 12 12 12 12 12 12 12 12 12 12 12 12
3 1 5 2 1 1 1 2 6 3 6 5 3 1 0 5 3 2 2 2 0 3 5 12 1 1 3 3 5 5 2 4 5 1 5 6 4 3 3 3 3 4 4 5 6 6 5 5 6 4 7 10 8 11 11 11 10 11 13 15 13 14 14 14 14 14 14 14 14 14 13 13 13 13 13 13 12 12 12 12 12 13 13 13 13 13 13 13 13 13 13 12 12 12 13 13 13
3 5 4 2 2 1 2 4 2 3 5 4 3 2 0 0 3 3 3 1 5 2 2 2 1 3 4 2 7 4 5 3 2 3 4 5 4 3 4 3 3 4 4 4 6 6 6 5 6 5 5 6 5 8 9 9 10 11 12 12 12 12 12 14 14 14 14 14 13 13 13 13 13 13 13 13 12 13 13 13 13 13 13 14 14 14 13 13 13 13 13 12 12 13 13 13 13
1 2 4 2 1 1 3 1 1 1 7 2 2 1 1 6 2 2 5 2 9 4 0 2 4 3 5 5 8 3 1 2 2 4 6 5 4 4 4 3 4 3 4 4 4 5 6 5 6 5 5 5 6 6 5 6 10 10 11 12 12 12 12 13 14 13 12 13 13 12 11 10 10 10 11 12 12 12 12 12 13 13 14 14 14 14 14 14 14 13 13 12 12 13 13 13 13
5 5 3 0 2 1 5 3 0 0 8 2 3 1 1 6 2 1 5 5 3 1 0 4 0 4 2 4 5 1 3 1 3 5 6 6 4 3 2 2 3 4 4 5 5 5 5 6 5 6 6 5 5 5 5 5 8 10 10 10 11 11 12 12 12 11 11 11 11 10 10 7 7 6 9 7 11 12 9 6 11 13 14 14 14 14 14 14 13 13 13 13 13 12 12 13 13
2 4 0 2 6 3 5 3 3 3 5 3 4 0 1 4 1 3 1 0 3 4 1 2 5 0 5 6 1 3 1 4 5 7 6 5 5 3 1 2 2 4 4 6 6 7 6 7 6 6 5 5 5 5 5 5 5 9 8 9 10 11 11 11 11 11 10 9 9 9 8 6 5 5 6 4 7 4 8 9 10 13 13 13 13 13 13 13 13 13 13 13 13 12 12 12 12
1 2 3 2 5 3 6 6 9 1 1 4 4 1 2 7 3 1 0 1 3 3 4 5 5 7 5 2 0 1 3 7 7 10 7 7 5 5 5 5 5 10 8 7 7 6 7 7 8 7 6 6 6 6 5 4 5 7 6 6 6 8 9 9 8 6 7 6 9 7 5 5 5 4 4 6 4 4 6 8 10 12 13 13 13 13 13 13 13 13 13 13 13 12 11 6 6
3 1 2 8 5 8 8 5 6 1 6 4 4 3 2 8 0 2 2 5 5 7 4 2 8 10 6 4 1 4 6 6 8 9 12 12 10 12 11 8 9 5 8 9 9 10 7 6 6 8 8 7 6 5 5 5 6 5 5 6 6 7 6 6 6 6 5 6 6 6 5 5 5 4 4 4 4 6 5 8 9 11 12 12 13 13 12 13 13 13 13 13 12 11 7 6 6
3 4 5 7 8 5 5 4 5 8 2 6 7 4 2 4 0 1 2 8 6 12 9 3 6 13 11 7 3 4 6 7 8 11 12 14 13 14 11 11 11 12 12 11 11 6 7 8 9 8 8 7 7 6 5 6 6 6 6 6 6 6 5 6 6 6 6 6 6 6 6 5 5 6 5 7 6 4 5 6 8 9 10 9 10 8 10 12 13 13 13 12 8 5 6 6 5
1 2 4 5 3 2 6 9 9 8 2 3 4 2 5 6 5 1 2 7 13 14 7 11 12 13 12 9 5 4 7 7 8 9 11 11 12 10 12 15 16 15 12 7 5 10 12 10 8 8 7 7 8 7 7 7 6 6 6 6 6 6 6 6 6 6 6 6 6 6 6 5 5 5 4 5 5 4 4 4 4 4 4 5 7 6 5 6 6 6 6 6 5 5 5 5 4
3 9 5 4 1 3 6 6 7 4 3 4 3 5 8 1 1 4 5 7 13 9 3 10 11 10 7 7 8 5 7 10 11 11 13 15 17 16 11 8 6 4 4 8 13 11 11 10 9 8 7 7 8 8 8 6 6 7 7 7 7 6 7 6 6 6 6 7 6 6 6 6 6 6 4 4 4 5 4 3 3 3 4 4 4 6 5 5 5 5 6 6 5 5 5 4 4
5 3 6 6 6 6 1 2 5 4 2 2 4 4 4 2 8 4 6 12 17 16 3 7 9 8 8 2 5 6 8 12 13 15 15 14 14 14 13 12 11 10 10 13 10 9 9 10 10 9 10 9 9 7 6 7 7 7 6 6 8 7 6 7 7 6 7 7 7 6 7 6 6 6 5 4 5 4 5 3 3 2 4 4 3 6 5 4 5 6 6 5 4 5 4 4 4
2 8 0 6 5 11 7 5 3 3 3 7 3 5 8 5 12 1 6 13 19 20 6 9 7 6 3 5 8 12 14 15 17 18 17 20 20 20 18 17 14 7 6 10 9 10 11 14 13 11 11 10 9 8 8 8 7 7 7 6 7 7 7 7 7 7 7 7 7 7 6 7 8 7 6 5 5 4 4 3 3 3 3 3 2 4 6 5 5 5 5 4 5 3 4 3 3
4 8 4 6 1 7 6 5 5 6 9 7 3 7 19 7 7 5 14 16 19 18 10 10 8 7 7 9 10 10 10 10 13 15 10 11 11 10 7 7 5 6 12 12 10 11 13 12 13 14 12 12 10 9 10 8 7 7 7 7 8 7 7 7 7 7 7 7 6 7 7 7 6 7 7 6 5 4 4 3 4 4 3 3 3 3 5 6 5 5 5 5 4 4 3 4 3
6 13 1 4 4 6 6 5 5 7 6 3 2 14 17 9 6 14 22 21 21 11 9 10 5 6 9 11 12 10 11 14 14 11 16 12 8 7 13 11 8 11 18 11 11 13 9 10 13 16 15 13 12 10 10 9 9 9 9 9 8 7 8 7 6 7 7 7 7 7 7 7 8 8 7 6 7 6 4 4 4 4 4 3 3 5 3 5 6 5 4 4 5 3 3 3 4
3 3 4 6 8 7 4 5 5 5 5 5 7 11 15 2 3 15 5 15 5 3 8 5 2 7 9 8 9 9 10 15 16 12 4 7 9 12 15 9 12 19 9 12 13 11 9 11 14 14 13 12 10 12 11 11 10 11 10 8 7 9 8 7 7 7 7 7 8 8 7 7 7 7 7 7 6 6 5 5 5 3 4 3 2 3 2 4 4 5 6 6 5 5 4 3 4
1 1 6 8 7 7 7 4 10 1 8 10 10 13 9 4 1 16 21 7 1 5 10 10 7 9 10 9 9 8 9 14 8 4 14 11 14 15 15 14 18 16 12 17 13 8 10 15 15 14 15 13 13 13 12 12 12 12 10 9 10 9 8 8 8 8 8 8 7 8 7 7 7 7 8 7 7 7 6 6 4 5 4 3 2 4 4 3 4 3 4 3 3 4 5 3 2
1 2 6 9 6 12 4 6 5 8 6 5 6 2 7 3 8 21 17 8 1 5 10 12 11 12 10 8 8 7 12 11 5 8 15 16 14 11 16 17 18 15 14 15 10 10 16 15 14 15 15 14 15 16 14 13 11 10 11 11 10 9 9 8 9 9 8 8 7 8 8 8 7 9 8 9 7 7 6 6 5 4 4 4 3 4 4 3 4 5 4 3 4 3 4 3 3
2 1 1 11 8 11 6 2 4 5 4 7 6 9 6 11 15 20 15 5 5 6 10 12 11 11 11 8 7 8 8 8 9 14 15 14 14 13 16 16 16 14 12 8 8 15 15 9 10 9 13 16 18 14 12 11 12 11 10 9 9 9 9 9 9 8 8 8 8 8 8 8 8 7 9 8 7 7 6 6 6 5 4 4 3 4 5 4 6 5 4 4 3 4 5 2 3
5 3 1 6 6 11 1 1 3 5 4 9 3 9 7 14 13 17 13 1 5 9 10 10 11 10 10 10 9 10 11 9 14 15 15 14 13 12 16 14 11 14 9 9 16 20 10 12 10 11 15 17 15 15 16 15 12 12 11 10 10 11 9 10 9 8 8 8 8 8 9 8 8 8 8 9 8 7 7 7 6 6 5 4 5 4 5 4 5 5 5 6 4 4 4 3 4
1 5 5 2 6 7 12 3 5 9 1 1 5 9 13 12 19 12 7 2 1 6 8 10 12 10 10 10 11 12 14 9 11 13 14 14 14 14 14 16 13 12 15 16 15 9 13 14 13 13 13 16 17 18 16 15 13 12 10 9 9 10 9 9 9 10 9 8 8 8 9 9 8 9 9 9 9 8 8 7 6 6 5 5 5 4 4 5 4 5 2 4 6 3 4 3 2
3 5 6 11 4 8 9 9 4 9 2 2 11 12 1 8 16 12 6 2 1 5 8 10 13 13 11 11 10 10 13 17 11 14 14 14 14 15 13 14 13 16 15 13 13 12 12 14 15 16 17 20 18 16 13 11 11 11 11 11 11 10 10 10 9 8 8 9 8 9 9 10 9 9 9 9 9 9 7 7 6 6 5 6 5 4 4 4 5 5 2 0 2 5 4 4 2
6 1 8 4 8 5 7 9 8 2 6 4 6 7 11 13 11 15 11 8 9 7 12 14 13 14 15 12 11 12 14 16 20 20 16 13 13 13 13 12 12 12 12 13 13 15 17 14 14 16 15 15 14 14 14 12 10 9 8 8 8 10 10 8 8 8 9 9 8 9 10 10 9 10 9 9 8 8 7 7 6 6 6 5 5 4 5 3 3 4 4 1 3 5 4 4 3
8 5 6 9 3 6 12 3 5 4 3 5 1 11 16 15 14 15 19 8 9 18 18 15 15 16 17 15 14 15 16 18 21 22 16 7 10 11 10 10 10 10 11 13 13 14 11 11 12 15 15 14 13 12 11 9 8 6 5 6 7 8 7 7 8 8 8 8 9 10 10 10 10 10 10 10 9 8 8 7 7 6 6 6 6 5 5 4 4 3 4 4 2 2 4 3 3
14 10 9 5 8 8 6 13 10 3 15 9 8 16 18 13 13 14 17 15 8 18 19 16 15 13 14 15 16 16 16 19 20 20 16 6 7 7 9 8 9 10 11 11 14 13 13 11 11 11 12 12 10 9 9 9 8 10 10 6 6 8 8 8 7 9 8 10 10 10 11 10 10 10 10 10 9 9 9 8 8 7 7 7 7 7 7 7 8 6 5 6 6 3 3 1 2
4 1 3 10 11 12 8 15 10 2 7 10 18 21 18 15 12 12 15 16 14 13 18 20 18 15 13 15 18 19 18 20 20 14 11 6 6 7 7 8 9 9 10 10 12 12 13 15 12 15 13 12 12 12 12 13 13 10 8 12 14 12 11 11 10 10 11 11 11 11 11 10 10 10 10 10 10 9 9 8 8 7 7 7 8 8 7 6 5 5 6 3 5 3 1 1 0
4 6 5 13 5 15 14 10 7 0 1 4 5 16 20 19 15 13 14 13 21 21 17 19 23 17 14 15 19 21 20 13 12 12 13 3 5 6 6 7 6 8 9 9 13 15 14 13 15 14 10 13 14 15 15 14 15 16 17 17 15 13 12 13 13 11 12 10 10 10 10 10 11 11 10 10 10 11 10 9 9 10 9 8 7 5 5 5 6 6 6 4 0 4 2 2 2
6 8 8 8 11 11 16 13 14 7 1 14 7 17 18 12 13 13 14 19 20 19 13 12 19 22 17 16 18 18 16 18 14 13 11 5 6 7 6 7 8 11 10 13 13 11 11 12 12 10 12 13 14 14 12 14 12 10 10 8 10 8 7 8 7 7 7 9 9 9 9 9 11 10 11 11 11 11 11 11 11 9 10 9 8 8 8 9 8 10 10 8 5 1 2 2 1
5 6 4 13 5 2 12 1 3 2 2 9 9 20 22 9 16 21 20 20 18 15 12 11 16 21 21 23 14 8 16 17 17 14 14 8 5 5 3 4 6 6 6 6 6 11 10 12 12 13 13 13 12 12 12 8 8 5 3 3 4 5 5 5 5 6 7 7 9 9 10 11 11 12 12 12 11 11 12 13 10 10 11 10 11 11 10 10 9 9 8 6 7 5 2 2 1
6 10 8 9 11 13 10 7 6 7 6 3 11 15 18 9 11 7 13 12 11 14 14 14 17 20 24 11 10 15 15 17 18 19 15 12 5 5 4 5 3 6 7 8 8 11 10 15 15 15 13 14 13 13 13 9 8 6 5 5 5 6 5 5 5 5 9 9 9 10 12 10 12 12 13 13 12 13 12 12 12 11 11 11 10 10 11 12 12 11 10 8 9 9 7 2 1
9 5 11 17 16 12 10 10 7 6 7 5 5 11 14 2 5 7 7 3 3 6 8 17 22 21 9 8 14 15 14 9 12 16 16 11 6 5 3 4 5 7 8 9 10 12 10 10 10 11 10 10 12 14 14 13 13 13 12 10 10 10 8 10 15 17 12 12 15 11 11 14 14 13 12 13 13 12 13 12 12 11 11 10 9 9 9 6 8 9 10 9 8 4 8 6 3
7 8 11 14 11 8 8 11 4 5 2 2 2 1 20 2 3 7 7 2 8 9 11 18 18 11 3 9 10 15 13 11 6 8 9 9 6 5 4 5 8 8 11 8 6 7 7 7 8 11 11 11 11 12 14 12 13 13 17 17 16 17 17 15 13 10 13 13 11 13 13 11 12 13 12 12 11 11 11 10 11 11 10 10 9 8 9 11 10 10 7 7 7 6 7 6 9
8 2 4 6 6 6 6 4 5 8 2 5 2 3 6 22 4 11 9 5 12 13 15 17 13 8 9 10 13 15 11 9 8 10 6 5 6 5 8 7 7 11 6 2 5 5 7 8 9 11 9 10 11 12 15 14 15 14 14 13 12 13 15 14 12 13 11 9 10 10 8 9 9 10 10 10 10 10 10 10 10 9 10 9 9 10 10 8 7 5 6 5 4 6 8 9 8
6 1 7 2 5 5 2 4 5 2 4 10 3 2 4 9 6 3 3 5 10 12 17 13 7 9 10 13 15 13 9 7 5 7 8 8 8 7 6 7 6 5 4 3 4 5 5 5 6 7 8 8 9 12 14 14 13 13 14 12 12 11 9 6 6 5 7 7 10 8 9 9 9 9 10 11 10 11 10 10 10 10 10 9 9 8 7 8 10 10 9 7 8 7 6 5 9
4 5 6 5 5 4 2 3 3 2 2 13 5 4 4 16 15 5 4 0 7 11 11 10 8 7 11 12 13 11 8 6 3 3 6 9 8 7 5 5 5 4 2 2 2 3 4 4 6 7 8 8 8 11 12 14 13 12 12 13 14 11 8 4 6 7 7 7 10 10 9 9 9 9 9 9 9 10 10 10 11 11 11 10 9 10 8 8 8 8 9 10 8 8 5 7 9
4 3 2 2 4 2 3 5 2 2 4 11 14 10 8 11 5 8 7 7 4 4 4 10 3 3 8 9 8 8 8 5 7 9 5 7 7 8 5 5 4 2 0 2 4 5 5 6 6 8 8 8 9 12 13 15 14 13 14 15 15 14 11 8 8 8 7 7 10 10 10 9 8 10 8 9 11 11 11 11 11 11 10 10 10 10 10 10 9 9 8 6 7 9 8 7 4
1 1 1 5 4 6 2 3 2 3 9 6 12 15 10 10 4 2 4 2 4 4 4 11 7 6 7 8 8 5 5 5 5 6 10 9 10 7 5 7 5 4 2 0 2 4 5 6 7 8 7 8 8 11 12 14 13 14 13 14 15 14 13 11 13 13 12 13 11 11 9 8 9 8 9 9 10 11 11 11 10 10 11 10 11 9 9 9 8 7 7 8 7 6 4 5 5
4 3 2 0 5 7 3 2 1 5 11 3 3 6 2 18 14 3 10 10 12 8 7 7 9 8 9 9 10 11 10 6 6 7 7 8 10 14 7 5 8 6 4 3 2 1 0 2 5 9 10 9 11 11 14 14 14 15 14 13 12 11 12 13 13 12 12 13 12 11 11 12 9 10 12 13 12 14 12 11 11 12 10 10 10 10 9 8 8 8 8 8 7 9 9 8 9
7 6 5 5 2 3 5 4 2 6 6 3 4 2 8 11 8 8 13 17 6 4 8 7 8 10 9 8 10 11 11 6 6 7 8 8 9 10 14 13 8 7 5 5 3 1 2 3 5 7 8 7 8 9 12 13 16 15 12 12 12 11 12 12 11 11 11 10 11 13 14 14 14 16 15 16 14 13 12 13 12 12 11 11 11 11 10 9 9 8 8 9 9 7 6 7 6
12 4 12 10 8 4 5 4 10 7 4 2 3 4 8 0 5 1 8 8 6 5 5 3 4 5 5 7 8 9 7 7 6 6 6 6 7 5 6 7 8 6 4 3 3 3 2 4 4 6 6 6 7 8 8 11 11 11 11 11 12 10 11 10 11 10 10 11 11 12 12 11 13 13 14 12 11 14 14 12 13 13 12 12 11 10 10 9 9 8 7 7 6 5 6 6 5
3 4 4 2 9 6 9 8 5 9 3 1 2 8 4 7 2 5 6 7 9 9 7 5 10 3 3 5 6 6 6 6 7 7 8 9 7 7 9 9 6 5 4 3 3 3 3 4 4 5 5 5 6 6 6 6 7 6 8 10 11 10 9 8 8 9 10 11 12 13 13 13 12 11 10 11 12 13 13 13 12 13 12 12 12 12 11 10 10 10 8 8 8 5 7 8 6
2 6 7 8 2 6 2 3 5 1 0 14 4 7 9 6 13 10 4 1 3 3 4 4 5 4 1 2 5 6 6 6 6 7 8 10 11 10 7 8 9 6 4 5 5 5 7 6 6 7 7 5 7 8 9 8 8 7 9 8 7 7 8 9 10 8 8 7 8 9 10 10 8 9 10 10 11 12 12 13 13 12 12 12 12 12 12 11 11 10 10 10 9 7 8 9 7
7 3 6 1 2 2 3 6 1 6 11 10 7 15 9 3 13 3 4 7 5 8 5 6 4 3 5 4 4 5 6 6 5 5 6 6 6 8 9 8 7 9 10 7 5 4 5 6 7 9 8 11 11 10 10 9 9 9 9 10 10 10 10 9 8 8 7 7 7 7 7 8 11 8 8 9 10 12 12 13 12 12 12 12 13 12 12 12 11 10 10 10 9 8 8 6 6
4 5 1 2 4 2 2 4 6 8 12 7 5 10 14 9 17 14 16 15 11 5 5 5 5 5 5 7 10 8 6 6 7 8 8 8 8 10 11 10 11 10 9 10 10 6 6 5 5 6 10 10 9 7 7 8 9 10 11 13 13 12 11 11 9 7 8 9 10 10 10 9 6 9 10 10 11 12 12 13 12 12 12 13 12 12 12 11 12 11 10 10 9 10 9 9 8
1 0 2 1 1 3 2 6 1 1 11 8 8 7 10 5 7 12 15 13 4 4 5 6 5 6 4 7 10 12 14 11 8 9 10 8 9 11 12 10 11 11 10 8 7 9 9 7 6 7 8 7 7 6 5 8 9 9 10 8 10 11 11 11 10 9 9 11 12 10 9 8 11 8 10 11 12 14 14 14 13 13 13 13 13 12 13 12 12 11 11 10 10 11 11 11 9
0 1 3 1 2 2 2 2 3 5 7 7 8 9 5 10 6 10 16 6 3 2 2 6 10 10 10 10 11 9 10 12 12 11 10 9 11 11 12 11 9 8 7 6 5 4 3 3 4 5 7 6 4 3 4 6 7 10 9 9 9 8 9 6 6 7 9 8 7 9 10 10 7 11 11 12 13 14 14 14 14 14 15 14 14 14 12 12 12 12 11 11 11 12 13 10 9
6 8 7 8 7 6 9 11 3 4 6 7 7 15 5 5 4 9 12 4 5 4 3 6 5 4 6 8 9 10 12 12 12 10 11 12 11 11 12 13 13 13 14 14 10 8 9 9 7 6 5 5 5 4 5 5 5 5 7 8 8 6 5 5 7 7 9 8 8 9 9 7 12 10 11 13 13 12 12 14 14 14 14 14 14 14 14 13 14 14 13 10 12 13 13 12 11
Wind_Direction
335 331 315 312 57 101 47 2 25 312 45 260 319 272 263 302 252 331 250 336 250 244 209 30 119 134 173 206 193 197 208 135 206 126 216 238 285 256 212 269 271 141 150 163 164 172 175 169 168 161 166 173 172 175 176 175 175 174 172 173 175 177 172 168 164 159 156 150 139 136 124 117 113 113 113 108 105 104 99 92 88 87 85 89 88 90 93 87 79 76 71 70 69 64 63 61 58
308 322 10 351 2 53 258 114 100 350 38 6 251 115 254 285 18 226 254 200 205 280 325 293 142 352 81 100 191 92 272 216 177 189 273 240 290 232 201 200 184 158 157 164 161 164 160 168 170 165 165 166 162 167 169 173 173 170 169 169 168 169 166 165 162 155 148 146 138 132 126 121 117 110 112 111 113 105 94 93 94 98 94 93 96 94 89 83 80 78 75 74 72 66 63 62 61
347 3 347 24 27 76 89 36 283 52 45 288 274 212 327 288 219 258 231 223 220 268 289 274 307 319 257 301 324 163 259 323 305 287 233 334 104 218 199 181 185 161 155 158 157 157 158 164 166 169 166 165 162 163 166 166 166 163 164 163 163 163 160 158 156 151 150 149 146 135 128 125 120 123 122 117 118 111 107 103 103 111 103 98 99 100 106 91 81 78 77 77 76 74 70 64 60
78 34 130 60 232 33 64 25 92 128 194 217 311 267 200 205 243 233 253 256 259 311 309 326 154 225 154 286 232 39 269 289 196 168 271 222 213 183 174 173 179 155 150 154 155 155 155 167 158 175 172 165 165 167 168 168 164 161 163 164 165 162 159 158 157 158 158 154 150 143 137 133 129 130 136 125 120 118 113 128 124 123 124 118 97 97 87 83 80 82 84 81 80 77 75 72 68
62 344 80 101 109 11 100 160 144 108 234 193 200 268 243 227 250 279 277 282 277 201 86 157 163 271 187 205 249 206 253 243 280 194 256 259 238 160 159 166 163 159 163 161 153 153 160 158 160 178 174 177 182 170 180 174 180 169 168 172 171 168 171 166 164 166 168 171 168 169 143 151 149 152 131 147 157 131 154 149 112 107 107 107 100 93 90 90 89 88 86 85 84 82 79 75 72
56 36 357 83 348 153 59 64 241 196 223 150 216 257 225 224 235 263 287 285 259 198 175 83 190 332 330 224 187 219 204 8 146 216 176 255 183 162 158 157 159 162 164 156 154 153 159 157 160 179 180 184 188 185 186 184 187 177 176 183 179 180 170 180 181 182 179 182 182 183 185 177 160 155 170 165 165 160 162 144 113 106 103 101 100 101 100 96 95 90 88 85 85 82 78 74 70
289 41 356 23 24 54 176 189 237 210 264 162 230 259 265 260 220 324 316 345 173 192 186 214 85 346 336 299 316 242 192 121 104 242 167 286 158 157 152 159 157 167 162 163 157 158 166 162 170 182 187 188 193 194 190 190 195 194 186 185 192 186 185 184 181 191 182 195 198 188 176 181 175 170 168 159 161 164 165 123 111 103 98 98 99 98 98 97 94 91 88 87 85 82 79 75 71
79 124 320 103 240 21 315 245 262 153 275 174 237 241 271 273 176 109 288 79 289 209 245 319 341 119 249 39 240 279 321 220 214 122 248 191 154 160 156 158 164 173 170 165 164 164 171 170 177 187 191 191 196 197 197 194 197 196 194 190 194 190 189 187 196 198 197 198 190 191 183 180 168 162 158 159 163 161 138 124 115 109 106 101 99 97 97 97 95 93 91 89 86 84 81 77 75
0 86 245 72 220 44 25 263 262 219 279 289 273 230 272 258 236 277 282 231 319 253 297 201 219 83 253 2 223 260 287 289 305 266 170 169 168 165 162 170 172 170 172 168 167 167 173 180 183 190 193 193 195 196 197 194 197 192 191 195 191 195 195 198 200 196 193 187 183 181 175 171 164 159 159 157 154 146 137 130 124 119 112 110 106 103 103 101 100 95 91 88 87 85 82 79 76
32 57 290 134 124 271 353 284 22 242 225 237 268 283 268 268 245 187 244 303 218 2 263 273 166 222 297 285 300 301 249 337 305 81 186 180 172 166 171 177 173 163 167 172 171 171 173 186 190 191 191 194 195 195 196 196 196 189 191 197 193 196 195 192 191 187 180 180 177 175 171 167 164 161 157 156 151 145 138 133 126 121 118 112 108 107 103 103 101 99 94 90 87 84 82 80 78
3 13 155 99 18 295 244 278 259 307 278 304 291 253 255 258 224 242 198 239 269 209 330 161 63 241 20 267 226 240 307 325 142 223 190 180 172 174 171 173 168 168 169 174 174 172 175 184 190 191 187 197 195 196 197 196 196 189 193 195 192 191 190 187 187 181 179 177 175 174 172 168 162 161 158 155 151 146 140 135 130 125 121 116 112 107 104 99 97 96 94 92 90 88 85 83 80
343 31 0 104 207 178 247 226 285 281 291 323 276 343 315 154 119 193 232 241 291 259 226 151 240 136 189 314 288 283 311 295 209 248 161 158 175 174 161 161 160 174 169 170 170 179 182 184 187 195 187 195 202 189 190 202 194 191 193 194 192 191 188 187 185 182 180 178 176 175 172 164 162 161 160 153 150 146 142 138 135 131 126 122 116 111 108 103 99 95 93 92 91 89 86 83 79
107 104 79 106 235 156 228 290 254 304 317 292 237 305 24 124 181 228 220 235 183 348 290 213 103 123 284 197 256 311 325 268 193 202 154 149 156 139 124 141 161 166 168 170 171 186 189 191 188 193 191 191 199 188 191 198 192 193 192 193 193 191 189 187 184 182 182 180 177 174 168 164 162 161 157 153 149 146 144 139 136 134 130 126 122 117 111 105 100 97 94 91 89 86 83 80 78
115 179 127 257 73 133 194 257 283 313 294 249 252 289 281 182 236 200 132 243 250 186 235 210 135 135 260 351 304 328 263 304 184 136 118 119 119 119 136 138 156 173 184 180 188 185 191 195 191 191 192 189 194 190 192 191 191 190 191 190 190 189 187 186 186 185 183 179 175 170 165 163 161 158 156 152 149 146 141 138 136 134 130 127 122 118 114 110 107 103 100 96 92 88 85 81 78
127 160 84 123 269 39 240 179 234 128 271 239 268 15 345 250 148 141 178 215 270 208 263 158 182 112 248 158 282 254 244 311 133 112 104 97 98 114 126 142 163 181 197 207 208 190 196 193 196 191 193 183 186 184 184 192 193 194 188 189 186 184 185 185 186 184 174 173 171 163 160 157 157 153 152 150 145 140 140 139 138 134 132 128 124 122 120 118 115 111 106 101 96 91 88 84 80
138 87 78 177 274 150 271 197 29 118 265 205 272 219 329 282 178 179 251 180 254 296 132 229 292 202 221 167 228 229 279 141 140 108 104 99 86 78 110 139 178 204 207 211 213 213 198 195 196 195 190 185 182 179 182 183 188 189 190 187 183 180 181 181 179 171 165 166 162 153 147 142 131 127 123 129 140 142 136 139 138 136 133 130 127 124 122 121 118 115 111 106 101 96 89 85 81
75 80 326 45 278 156 253 175 156 236 245 277 287 321 17 296 291 234 115 136 255 257 204 225 199 337 210 209 221 274 271 132 117 111 107 115 126 126 126 182 213 234 227 221 214 209 207 199 198 192 194 184 181 177 178 181 186 180 182 177 177 176 179 176 170 158 157 151 135 127 118 115 118 114 110 115 109 121 138 139 139 138 134 130 126 122 118 115 113 109 106 101 96 88 80 73 70
61 125 125 251 205 163 210 191 191 215 246 278 328 148 342 305 322 269 33 292 237 271 243 291 292 255 226 242 358 166 148 140 148 143 161 161 164 174 196 210 193 212 208 217 222 213 204 207 197 192 189 192 179 177 178 179 182 175 170 173 173 177 177 169 159 148 137 130 128 123 122 125 124 123 125 124 126 125 126 134 137 136 131 127 125 121 118 112 109 104 99 93 86 77 69 61 51
116 125 114 235 183 238 164 203 212 149 257 232 264 284 224 258 221 290 341 281 282 287 250 278 266 275 282 275 118 134 153 160 168 176 171 178 186 192 200 195 208 211 218 217 217 208 207 201 199 197 194 184 180 180 179 179 180 169 169 169 170 170 169 151 144 139 137 137 134 133 129 128 131 129 131 133 133 131 128 129 135 135 131 128 125 119 116 111 105 101 96 90 81 71 62 57 56
223 127 231 248 215 234 228 201 226 203 273 298 304 298 163 254 142 311 233 278 292 264 265 279 249 259 250 244 151 175 175 182 189 184 191 195 195 196 195 199 207 214 214 207 205 194 200 203 203 198 190 183 180 183 178 180 180 169 168 167 166 161 152 146 144 144 144 143 143 139 137 140 133 138 142 136 125 116 115 109 113 113 111 100 99 97 99 103 99 94 91 83 72 66 67 58 59
268 109 207 233 219 208 249 211 235 243 205 266 250 310 320 275 229 141 226 330 280 265 219 219 237 239 247 241 208 177 192 195 202 209 206 208 211 212 205 200 198 204 206 188 188 202 202 201 195 200 190 184 182 182 182 185 176 165 171 169 164 158 150 148 150 150 152 149 147 145 147 144 142 140 131 118 108 103 91 80 77 85 89 95 90 95 88 83 82 87 80 77 77 78 73 59 59
111 211 232 209 116 234 236 215 216 209 197 218 298 327 268 1 135 212 197 225 266 268 222 214 226 239 234 234 217 185 197 202 208 207 212 209 206 211 215 231 243 228 170 190 209 202 201 199 195 191 187 190 191 184 185 178 166 179 179 175 162 160 158 158 156 158 157 159 155 153 148 143 145 136 133 131 119 117 112 108 104 104 110 116 109 114 109 108 95 92 93 86 76 76 76 67 56
247 265 254 233 213 245 217 197 224 178 234 204 305 255 329 273 284 199 179 215 255 260 218 221 224 226 234 205 142 195 208 213 210 212 211 216 221 221 216 215 207 204 199 213 202 203 196 196 196 186 193 188 195 184 176 176 187 183 177 174 168 175 164 162 169 168 169 164 160 161 155 159 150 146 144 143 142 130 133 136 145 143 139 134 144 125 105 93 98 97 94 93 87 84 76 68 68
232 260 234 279 206 234 243 271 135 212 226 257 217 329 291 282 296 126 192 236 247 269 238 259 241 239 217 194 195 204 206 209 215 215 208 211 209 211 208 208 211 212 210 219 203 199 196 197 192 188 194 188 190 183 181 186 184 180 183 177 184 172 167 177 175 174 164 169 168 168 162 161 158 155 158 154 156 136 151 154 147 140 142 133 116 113 114 101 99 100 105 99 97 91 98 85 74
214 271 219 268 198 245 264 250 268 272 263 260 307 285 268 245 248 318 263 257 263 263 269 256 260 250 239 234 232 223 221 228 234 228 229 237 231 234 238 241 223 204 224 214 206 205 204 193 188 195 192 191 188 181 189 187 180 182 180 185 189 177 181 182 176 166 171 172 172 169 161 160 160 158 160 162 142 154 149 149 151 150 135 132 116 102 120 126 119 121 121 122 113 114 111 114 106
209 235 232 285 280 287 278 306 252 246 272 183 270 259 267 278 249 259 256 263 259 276 278 267 261 255 243 236 238 225 226 226 230 230 222 225 233 230 232 217 208 213 221 205 204 213 195 187 194 198 193 190 186 179 193 184 185 186 192 193 186 180 188 179 169 178 176 169 176 177 172 165 168 164 159 154 155 163 160 151 143 145 136 125 119 134 139 135 141 130 124 127 129 133 131 144 129
173 247 248 264 271 290 285 223 264 231 237 157 196 254 265 327 77 282 186 240 281 281 266 275 223 245 247 240 241 237 228 233 225 225 246 232 228 222 232 211 213 226 209 215 210 207 189 187 203 197 194 190 182 190 191 193 182 195 193 187 182 191 180 172 180 180 178 182 179 173 171 170 161 157 157 158 157 158 162 157 155 135 130 147 136 142 141 145 142 146 149 148 149 143 134 143 141
351 250 307 285 284 263 241 258 258 159 279 183 200 245 270 313 133 247 269 258 61 301 287 286 266 258 260 243 237 237 231 242 237 185 224 219 223 217 222 207 219 223 203 220 211 184 188 201 199 194 193 189 188 195 191 193 193 195 188 185 192 187 171 180 181 181 186 185 175 174 172 168 162 161 158 159 162 162 165 162 152 148 167 167 160 156 153 145 141 131 126 129 139 133 124 109 108
265 17 314 291 324 311 264 232 258 158 252 156 174 240 302 259 233 249 250 281 327 281 280 282 283 279 270 258 243 237 233 242 220 216 227 225 227 215 223 215 217 215 219 220 197 187 203 200 194 196 190 190 193 195 195 197 194 190 188 192 189 180 181 179 184 187 186 183 176 176 173 168 169 163 165 162 162 162 160 159 158 169 169 168 167 160 142 135 125 125 117 120 111 112 101 81 82
358 64 168 320 327 299 311 134 20 151 250 151 145 285 201 256 243 266 267 268 286 290 276 276 275 279 281 278 257 253 247 242 230 228 230 229 230 221 224 224 216 215 216 203 185 207 206 194 195 188 192 194 198 196 194 195 196 193 193 189 184 179 185 184 189 186 182 179 179 177 173 174 169 166 159 161 157 159 162 166 167 174 172 169 163 154 151 155 142 132 140 118 100 100 96 73 78
283 249 108 258 353 271 241 121 144 325 203 178 142 249 251 267 261 262 278 204 252 266 274 277 275 273 278 281 278 267 260 222 235 236 234 233 233 231 228 233 215 216 206 195 202 214 186 197 186 195 195 198 194 197 197 199 194 192 189 187 185 185 184 188 186 180 180 181 173 177 178 176 172 168 167 160 162 162 165 169 173 177 163 162 164 175 155 151 143 141 140 115 95 83 88 73 82
348 359 274 332 198 280 287 270 225 248 325 193 149 256 251 249 268 259 293 338 219 250 264 273 276 270 269 273 276 277 273 255 243 245 237 232 228 232 226 231 214 212 207 209 211 194 197 198 192 198 191 197 198 199 199 197 193 192 190 187 184 183 184 189 185 185 182 172 177 177 180 177 173 172 169 164 161 169 170 175 175 159 165 161 166 165 152 156 147 132 120 135 119 105 107 72 64
347 194 282 270 228 260 335 291 177 217 143 267 177 247 276 282 257 275 284 304 209 250 262 263 270 274 269 267 268 273 284 282 260 245 236 227 229 227 227 228 215 215 212 210 204 198 204 197 195 197 195 198 200 199 196 194 190 189 189 187 186 182 187 190 186 177 174 177 179 179 180 179 176 173 171 169 163 168 169 169 164 163 161 164 163 167 164 158 150 143 128 87 136 146 128 119 71
274 175 231 201 253 301 288 306 286 170 177 230 249 249 242 260 280 291 290 296 299 267 267 267 269 274 273 270 265 264 265 268 273 265 245 218 232 225 226 225 220 216 213 209 205 199 203 196 197 199 201 198 196 194 193 190 188 182 182 182 181 187 193 190 180 174 182 180 178 186 180 180 176 174 171 170 167 168 167 164 155 158 160 161 162 164 167 146 138 144 127 75 131 127 134 130 133
235 253 277 281 267 239 252 323 260 21 165 214 304 252 257 265 278 280 279 273 276 280 271 267 263 265 270 270 265 260 257 259 260 264 264 233 225 229 223 221 219 213 210 206 204 206 201 197 197 201 198 193 191 188 186 179 168 166 156 163 177 188 191 190 178 182 183 180 188 185 179 182 177 174 172 169 165 164 162 161 160 164 160 163 160 164 157 155 146 140 141 113 88 95 130 150 144
238 240 260 301 289 256 234 240 264 253 281 291 264 265 271 266 265 271 279 277 242 268 279 279 266 259 264 266 265 260 258 261 260 263 270 256 226 221 218 215 216 212 209 201 204 202 201 196 198 199 198 187 182 176 170 174 170 175 176 163 179 198 191 184 186 190 181 190 192 183 183 182 177 175 173 169 166 164 165 168 163 161 165 163 168 171 176 176 171 154 156 139 124 83 46 76 82
310 357 252 259 263 276 264 267 274 271 304 241 260 269 271 269 259 265 269 282 276 258 272 274 272 266 260 263 265 263 260 255 261 270 273 255 227 221 216 205 212 211 211 201 201 201 198 197 185 199 191 180 177 177 181 178 180 180 182 193 199 190 188 187 188 193 192 195 188 187 182 182 176 173 173 168 172 166 166 160 160 166 167 173 179 190 177 169 166 162 152 141 133 118 84 17 164
275 284 275 269 243 275 259 286 283 47 237 261 233 277 273 273 273 266 267 270 270 264 255 269 275 270 262 259 263 265 261 272 275 276 272 254 231 222 212 207 197 203 221 201 202 201 199 191 194 195 175 185 188 187 185 185 190 188 185 192 193 185 181 185 197 195 196 191 186 185 183 180 175 177 173 175 170 168 166 169 171 174 172 180 181 165 164 167 161 164 163 113 57 136 154 195 187
259 244 269 294 265 264 278 262 275 276 165 281 276 267 267 270 268 260 251 250 255 258 254 247 273 279 271 265 257 265 285 276 276 271 274 246 230 227 211 212 211 211 208 202 206 195 194 195 199 183 187 187 193 189 183 194 191 190 191 191 187 183 198 201 194 187 180 184 183 182 180 180 177 178 177 176 173 177 173 170 180 171 176 169 166 174 176 180 180 178 184 160 136 60 135 182 161
229 249 269 251 274 321 297 174 360 337 218 301 296 291 284 260 252 249 247 250 250 264 268 250 249 264 266 256 268 294 272 280 283 278 279 267 223 238 241 246 230 225 224 216 203 198 196 200 194 188 188 189 187 191 192 189 182 172 155 116 150 144 172 163 155 154 171 166 183 182 188 183 181 183 179 180 180 179 177 180 172 175 179 178 177 176 181 184 181 186 190 192 154 137 172 183 123
208 217 240 274 262 244 239 282 333 313 284 258 300 291 283 217 243 248 263 252 264 265 267 266 255 249 253 283 305 260 263 271 280 287 284 285 298 301 256 259 261 234 226 217 203 203 201 202 196 189 185 186 185 181 180 165 146 134 115 86 96 84 77 139 148 187 187 185 181 191 193 183 186 185 183 185 182 183 181 179 178 180 177 181 179 182 185 190 187 188 183 176 189 154 177 165 166
259 204 206 236 255 276 270 284 344 359 319 339 36 330 305 202 186 228 268 12 264 258 242 251 252 250 272 290 271 282 264 248 264 280 286 303 10 325 293 269 240 238 236 226 212 212 205 203 190 186 182 182 184 180 173 166 172 168 161 159 168 178 180 180 195 197 179 187 199 189 188 192 187 187 184 186 187 181 184 183 180 177 179 178 185 188 186 176 189 186 192 188 192 209 147 151 127
287 266 206 235 246 252 269 279 355 292 245 315 48 84 291 187 201 245 248 246 261 266 231 245 253 270 302 267 272 270 277 293 267 262 299 344 330 325 278 252 237 237 238 225 223 221 214 201 190 185 183 182 179 176 173 172 176 181 185 188 186 186 192 204 202 185 186 198 192 190 195 188 189 186 187 186 187 185 182 181 182 181 180 182 181 179 185 193 190 194 179 190 196 157 138 141 160
263 235 188 209 226 231 244 237 198 252 262 281 174 167 247 299 297 212 219 201 239 249 257 256 264 291 284 274 267 271 289 279 309 315 343 322 297 274 279 250 237 235 248 221 231 223 207 196 183 186 184 184 181 173 177 181 182 186 190 196 197 201 204 202 187 192 192 185 186 189 181 189 190 192 183 186 186 183 181 183 182 180 181 183 178 189 192 189 184 192 188 192 174 188 171 156 165
218 242 151 173 211 217 154 169 201 228 24 300 139 93 298 257 254 20 154 210 257 261 260 273 321 305 288 279 277 281 292 315 351 333 336 318 302 293 270 275 274 293 291 235 226 222 213 198 187 182 186 181 180 177 179 185 186 186 191 193 202 213 211 203 181 182 183 171 180 173 177 182 187 192 188 185 185 184 182 180 177 181 183 183 185 188 190 184 188 182 181 181 190 197 196 164 150
251 130 86 86 85 76 138 131 140 331 40 276 170 181 231 279 288 99 15 248 267 254 273 277 253 261 273 279 283 297 311 328 4 2 317 301 306 300 284 282 299 279 252 202 198 175 182 180 186 181 189 181 177 181 183 187 189 184 191 199 204 204 194 167 154 174 177 170 184 181 182 180 186 187 189 184 182 185 182 177 182 185 185 182 185 189 183 184 191 193 191 189 185 184 190 175 176
118 96 88 8 40 36 30 71 98 50 259 258 169 194 177 281 280 165 128 209 201 263 285 279 280 285 273 268 277 293 309 342 349 330 297 296 296 280 267 277 264 294 34 148 159 162 168 174 182 189 191 178 179 183 184 190 192 192 197 198 200 197 189 169 166 179 170 174 189 186 184 185 178 189 181 188 190 184 185 182 184 187 183 183 185 183 189 188 190 190 190 187 189 183 182 183 157
137 88 123 24 307 17 35 342 38 194 270 241 185 181 185 212 302 307 244 258 217 232 273 285 319 299 285 295 296 304 310 335 339 331 326 322 316 307 328 318 333 336 351 41 151 158 166 176 175 186 192 189 183 186 188 194 195 202 204 199 199 198 185 182 187 186 183 185 186 184 181 171 187 184 187 191 192 188 185 187 185 182 186 183 190 187 186 187 183 181 181 188 189 192 176 168 158
97 94 52 217 276 27 322 39 285 190 223 279 195 147 348 244 246 296 292 287 261 208 217 245 263 288 294 295 316 318 310 341 342 316 303 317 324 322 335 342 342 347 346 343 346 349 355 193 188 187 198 191 192 190 193 194 196 203 202 202 205 198 195 194 194 189 185 185 184 180 177 188 178 185 197 195 197 187 185 183 184 186 187 190 185 182 186 179 178 182 184 186 187 188 186 180 175
129 150 159 109 275 241 253 266 249 297 290 264 175 214 244 273 298 217 240 258 287 269 217 232 242 253 281 307 311 311 317 347 322 316 320 319 333 335 326 335 343 334 341 334 327 243 219 215 212 211 213 198 197 199 200 199 204 202 198 201 202 197 202 197 197 195 188 189 185 186 186 186 187 197 191 199 191 183 189 192 186 189 187 184 184 184 181 180 176 181 181 186 191 192 179 187 183
191 147 155 187 173 160 255 195 246 238 236 347 277 135 233 128 240 245 226 265 278 272 249 266 285 265 277 285 299 301 314 329 328 328 326 325 332 311 300 313 324 324 318 301 291 280 264 236 218 222 222 215 208 211 211 215 213 208 205 205 203 201 202 197 200 196 185 187 190 190 193 191 196 198 196 194 175 188 191 186 189 185 184 183 181 181 181 177 175 172 181 187 183 180 184 176 177
201 161 57 71 228 125 226 222 249 280 287 294 230 212 203 229 241 263 229 262 278 285 298 295 284 317 327 317 303 310 321 325 329 344 351 356 355 349 346 336 317 299 288 265 245 230 239 245 240 242 241 235 220 214 222 227 237 238 230 216 213 206 205 200 199 198 197 191 190 192 194 195 199 190 190 181 189 183 187 187 185 191 185 182 183 182 179 178 175 174 176 178 185 173 178 181 181
208 105 202 217 133 149 288 293 248 142 341 251 203 284 273 292 289 292 350 19 295 331 308 332 291 296 303 290 348 328 328 323 326 342 359 351 352 350 338 320 321 312 277 243 234 213 207 207 211 219 222 228 226 220 212 207 213 220 228 231 226 220 216 212 209 205 199 193 193 199 198 201 190 187 188 184 180 186 186 186 186 187 186 185 182 184 181 179 175 178 179 177 183 174 176 187 172
107 192 238 76 171 112 162 234 338 223 237 254 221 257 271 357 281 354 2 4 306 331 345 315 308 337 33 348 302 299 304 304 303 333 357 336 327 325 320 317 309 314 316 307 278 258 233 216 209 212 215 219 217 208 211 209 205 211 219 222 220 217 216 217 211 206 194 185 197 197 195 188 198 187 177 182 180 181 186 186 187 188 186 183 185 181 181 179 175 183 181 182 178 164 174 172 177
178 186 260 141 241 255 281 86 245 237 242 265 223 261 270 263 273 294 287 282 296 308 328 354 353 355 324 321 324 323 326 336 340 339 339 349 336 333 331 334 333 329 327 322 323 322 307 296 281 251 239 230 220 211 213 219 212 215 211 212 211 213 213 213 211 194 184 195 199 199 199 198 172 179 180 178 179 184 186 189 188 187 184 186 182 183 179 179 180 180 179 179 170 169 174 179 180
70 30 314 150 109 215 186 195 206 303 266 259 247 215 256 233 256 266 276 273 247 275 338 349 312 324 312 329 332 333 334 331 332 344 349 348 340 346 349 349 339 339 338 332 329 331 327 322 319 314 313 323 321 301 293 256 242 229 224 219 223 218 217 214 209 200 200 201 200 195 195 190 197 178 187 179 184 186 187 187 190 187 185 184 184 184 181 181 180 185 179 178 177 171 177 181 177
120 127 260 236 200 206 91 313 229 232 266 246 271 251 236 237 249 262 269 262 213 190 287 326 335 339 340 336 332 327 328 347 6 9 8 9 359 358 1 5 2 355 358 345 338 318 276 298 297 287 288 283 265 258 274 274 303 290 292 261 243 231 231 223 217 214 216 216 208 202 200 199 167 194 181 187 189 189 189 190 187 190 187 186 185 183 183 179 183 184 183 182 174 178 180 181 171
179 186 213 211 220 269 262 261 139 223 213 240 235 252 225 251 238 277 283 257 189 224 271 304 294 305 314 311 316 346 5 6 11 27 27 16 18 13 10 8 10 14 14 12 357 349 345 335 316 302 290 279 276 259 241 257 259 259 263 270 284 286 267 234 224 216 219 214 210 209 203 182 200 196 185 192 191 189 190 189 190 192 190 188 187 186 183 182 185 184 184 181 181 180 182 179 175